sat.trackr.live / text

‹ back to catalog

STARLINK-32344

NORAD 61719 · 2024-196N

PAYLOAD ACTIVE UNKNOWN

§ Identity

Operator
Country
US
Launch date
2024-10-30
Launch site
AFETR
Launch vehicle
Mass (kg)
RCS (m²)

Purposes: comms

External: N2YO · Heavens-Above · Gunter

§ Orbital elements

Epoch: 2026-09-21T07:19:58.508256Z

Period
93.85 min
Inclination
53.1609°
Eccentricity
0.0001303
Mean motion
15.34392441 rev/d
Perigee alt
461.8 km
Apogee alt
463.6 km
Semi-major
6,840.9 km
B*
3.3149e-5
RAAN
270.0756°
Arg perigee
88.1098°
Mean anomaly
272.0054°
Rev number
10,714

§ Raw data

STARLINK-323441 61719U 24196N   26264.30553829  .00000744  00000+0  33149-4 0  99992 61719  53.1609 270.0756 0001303  88.1098 272.0054 15.34392441107147

JSON: /api/v1/satellites/61719 · /tle

For live sub-satellite position, see the globe view (requires WebGL).

§ Visibility from observer

Set your observer location to see the next 7 days of passes ≥ 10°. The values pass through the URL so the page stays shareable.

No JS? Fill the form by hand. The geolocation button needs JavaScript.